Epoch 2003 Aug. 29.0 TT = JDT 2452880.5
T 2003 Aug. 29.23185 TT Muraoka
q 2.2311477 (2000.0) P Q
n 0.14970413 Peri. 92.94105 -0.95518368 -0.27794791
a 3.5127469 Node 70.93801 +0.21021282 -0.87911631
e 0.3648424 Incl. 6.18485 +0.20840997 -0.38716854
P 6.58
From 139 observations 1984-1997, mean residual 0".75.
星図
光度変化
H = 14.5 G = 0.15 [ ,-200] ( 〜2003年 2月10日)
m1 = 3.0 + 5 logΔ + 35 log r [-200, 200] (2003年 2月10日〜2004年 3月16日)
H = 14.5 G = 0.15 [ 200, ] (2004年 3月16日〜 )
軌道要素は村岡健治氏の計算によるものです。
星図は StellaNavigator Ver.2.0 for Windows
(アストロアーツ
編著 / アスキー出版局刊) で作成したものです。
光度グラフはComet for
Windowsで作成したものです。
Copyright(C) Seiichi Yoshida (comet@aerith.net). All rights reserved.